QPF
0.00 0.00 0.00 0.00 0.00 0.00 0.00 0.00 0.00 0.00 0.00 0.00 0.00 0.00 0.00 0.00 0.00 0.00 0.00 0.00 0.00 0.00 0.00 0.00 0.00 0.00 0.00 0.00 0.00 0.00 0.00 0.00 0.00 0.00 0.00 0.00 0.00 0.00 0.00 0.00 0.00 0.00 0.00 0.01
0.00 0.00 0.00 0.00 0.00 0.00 0.00 0.00 0.00 0.00 0.00 0.00 0.00 0.00 0.00 0.00 0.00 0.00 0.00 0.00 0.00 0.00 0.00 0.00 0.00 0.00 0.00 0.00 0.00 0.00 0.00 0.00 0.00 0.00 0.00 0.00 0.00 0.00 0.00 0.00 0.00 0.00 0.00 0.00
0.00 0.00 0.00 0.00 0.00 0.00 0.00 0.00 0.00 0.00 0.00 0.00 0.00 0.00 0.00 0.00 0.00 0.00 0.00 0.00 0.00 0.00 0.00 0.00 0.00 0.00 0.00 0.00 0.00 0.00 0.00 0.00 0.00 0.00 0.00 0.00 0.00 0.00 0.00 0.00 0.00 0.00 0.00 0.00
0.00 0.00 0.00 0.00 0.00 0.00 0.00 0.00 0.00 0.00 0.00 0.00 0.00 0.00 0.00 0.00 0.00 0.00 0.00 0.00 0.00 0.00 0.00 0.00 0.00 0.00 0.00 0.00 0.00 0.00 0.00 0.00 0.00 0.00 0.00 0.00 0.00 0.00 0.00 0.00 0.00 0.00 0.00 0.01
0.00 0.00 0.00 0.00 0.00 0.00 0.00 0.00 0.00 0.00 0.00 0.00 0.00 0.00 0.00 0.00 0.00 0.00 0.00 0.00 0.00 0.00 0.00 0.00 0.00 0.00 0.00 0.00 0.00 0.00 0.00 0.00 0.00 0.00 0.00 0.00 0.00 0.00 0.00 0.00 0.00 0.00 0.00 0.03
0.00 0.00 0.00 0.00 0.00 0.00 0.00 0.00 0.00 0.00 0.00 0.00 0.00 0.00 0.00 0.00 0.00 0.00 0.00 0.00 0.00 0.00 0.00 0.00 0.00 0.00 0.00 0.00 0.00 0.00 0.00 0.00 0.00 0.00 0.00 0.00 0.00 0.00 0.00 0.00 0.00 0.00 0.00 0.00
0.00 0.00 0.00 0.00 0.00 0.00 0.00 0.00 0.00 0.00 0.00 0.00 0.00 0.00 0.00 0.00 0.00 0.00 0.00 0.00 0.00 0.00 0.00 0.00 0.00 0.00 0.00 0.00 0.00 0.00 0.00 0.00 0.00 0.00 0.00 0.00 0.00 0.00 0.00 0.00 0.00 0.00 0.00 0.00
0.00 0.00 0.00 0.00 0.00 0.00 0.00 0.00 0.00 0.00 0.00 0.00 0.00 0.00 0.00 0.00 0.00 0.00 0.00 0.00 0.00 0.00 0.00 0.00 0.00 0.00 0.00 0.00 0.00 0.00 0.00 0.00 0.00 0.00 0.00 0.00 0.00 0.00 0.00 0.00 0.00 0.00 0.00 0.00
0.00 0.00 0.00 0.00 0.00 0.00 0.00 0.00 0.00 0.00 0.00 0.00 0.00 0.00 0.00 0.00 0.00 0.00 0.00 0.00 0.00 0.00 0.00 0.00 0.00 0.00 0.00 0.00 0.00 0.00 0.00 0.00 0.00 0.00 0.00 0.00 0.00 0.00 0.00 0.00 0.00 0.00 0.00 0.00
0.00 0.00 0.00 0.00 0.00 0.00 0.00 0.00 0.00 0.00 0.01 0.00 0.00 0.00 0.00 0.00 0.00 0.00 0.00 0.00 0.00 0.00 0.00 0.00 0.00 0.00 0.00 0.00 0.00 0.00 0.00 0.00 0.00 0.00 0.00 0.00 0.00 0.00 0.00 0.00 0.00 0.00 0.00 0.00
0.00 0.00 0.00 0.00 0.00 0.00 0.00 0.00 0.00 0.00 0.00 0.04 0.02 0.00 0.00 0.00 0.00 0.00 0.00 0.00 0.00 0.00 0.00 0.00 0.00 0.00 0.00 0.00 0.00 0.00 0.00 0.00 0.00 0.00 0.00 0.00 0.00 0.00 0.00 0.00 0.00 0.00 0.00 0.00
0.00 0.00 0.00 0.00 0.00 0.00 0.00 0.00 0.00 0.01 0.01 0.01 0.04 0.01 0.00 0.00 0.00 0.00 0.00 0.00 0.00 0.00 0.00 0.00 0.00 0.00 0.00 0.00 0.00 0.00 0.00 0.00 0.00 0.00 0.00 0.00 0.00 0.00 0.00 0.00 0.00 0.00 0.00 0.00
0.00 0.00 0.00 0.00 0.00 0.00 0.00 0.00 0.00 0.00 0.01 0.02 0.05 0.01 0.00 0.00 0.00 0.00 0.00 0.00 0.00 0.00 0.00 0.00 0.00 0.00 0.00 0.00 0.00 0.00 0.00 0.00 0.00 0.00 0.00 0.00 0.00 0.00 0.00 0.00 0.00 0.00 0.00 0.00
0.00 0.00 0.00 0.00 0.00 0.00 0.00 0.00 0.00 0.00 0.02 0.02 0.04 0.01 0.00 0.00 0.00 0.00 0.00 0.00 0.00 0.00 0.00 0.00 0.00 0.00 0.00 0.00 0.00 0.00 0.00 0.00 0.00 0.00 0.00 0.00 0.00 0.00 0.00 0.00 0.00 0.00 0.00 0.00
0.00 0.00 0.00 0.00 0.00 0.00 0.00 0.00 0.00 0.00 0.00 0.02 0.00 0.00 0.00 0.00 0.00 0.00 0.00 0.00 0.00 0.00 0.00 0.00 0.00 0.00 0.00 0.00 0.00 0.00 0.00 0.00 0.00 0.00 0.00 0.00 0.00 0.00 0.00 0.00 0.00 0.00 0.00 0.00
0.00 0.00 0.00 0.00 0.00 0.00 0.00 0.00 0.00 0.00 0.00 0.00 0.00 0.00 0.00 0.00 0.00 0.00 0.00 0.00 0.00 0.00 0.00 0.00 0.00 0.00 0.00 0.00 0.00 0.00 0.00 0.00 0.00 0.00 0.00 0.00 0.00 0.00 0.00 0.00 0.00 0.00 0.00 0.00
0.00 0.00 0.00 0.00 0.00 0.00 0.01 0.00 0.00 0.00 0.00 0.00 0.01 0.00 0.00 0.00 0.00 0.00 0.00 0.00 0.00 0.00 0.00 0.00 0.00 0.00 0.00 0.00 0.00 0.00 0.00 0.00 0.00 0.00 0.00 0.00 0.00 0.00 0.00 0.00 0.00 0.00 0.00 0.01
0.00 0.00 0.00 0.00 0.00 0.01 0.01 0.00 0.00 0.00 0.00 0.00 0.00 0.00 0.00 0.00 0.00 0.00 0.00 0.00 0.00 0.00 0.00 0.00 0.00 0.00 0.00 0.00 0.00 0.00 0.00 0.00 0.00 0.00 0.00 0.00 0.00 0.00 0.00 0.00 0.00 0.01 0.02 0.05
0.00 0.00 0.00 0.01 0.02 0.01 0.01 0.02 0.00 0.00 0.00 0.01 0.01 0.01 0.00 0.00 0.00 0.00 0.00 0.00 0.01 0.00 0.00 0.00 0.00 0.00 0.00 0.00 0.00 0.01 0.00 0.00 0.00 0.00 0.00 0.00 0.00 0.00 0.00 0.00 0.00 0.04 0.08 0.08
0.00 0.00 0.02 0.03 0.03 0.03 0.05 0.01 0.00 0.00 0.01 0.01 0.00 0.00 0.00 0.01 0.01 0.00 0.00 0.00 0.00 0.00 0.00 0.00 0.00 0.00 0.00 0.00 0.01 0.00 0.00 0.00 0.00 0.00 0.00 0.00 0.00 0.00 0.00 0.00 0.02 0.06 0.03 0.01
0.00 0.00 0.00 0.01 0.03 0.02 0.02 0.00 0.00 0.01 0.01 0.00 0.01 0.02 0.02 0.02 0.02 0.01 0.00 0.00 0.00 0.00 0.00 0.00 0.01 0.01 0.00 0.00 0.00 0.00 0.00 0.00 0.00 0.00 0.00 0.00 0.00 0.00 0.00 0.00 0.05 0.02 0.01 0.00
0.00 0.01 0.02 0.03 0.02 0.04 0.01 0.00 0.01 0.03 0.03 0.02 0.02 0.02 0.01 0.00 0.00 0.00 0.00 0.01 0.01 0.01 0.00 0.00 0.01 0.00 0.00 0.00 0.01 0.00 0.00 0.00 0.00 0.00 0.00 0.00 0.00 0.00 0.00 0.03 0.01 0.00 0.01 0.00
0.00 0.01 0.03 0.04 0.02 0.01 0.00 0.03 0.02 0.02 0.02 0.02 0.03 0.01 0.01 0.00 0.00 0.01 0.00 0.01 0.01 0.01 0.01 0.01 0.01 0.00 0.00 0.00 0.00 0.00 0.00 0.00 0.00 0.00 0.00 0.00 0.00 0.00 0.01 0.02 0.00 0.01 0.01 0.00
0.00 0.00 0.02 0.03 0.00 0.00 0.00 0.00 0.00 0.01 0.02 0.02 0.02 0.01 0.00 0.01 0.00 0.00 0.01 0.01 0.01 0.01 0.01 0.00 0.00 0.00 0.00 0.00 0.00 0.00 0.00 0.00 0.00 0.00 0.00 0.00 0.00 0.01 0.04 0.01 0.00 0.00 0.00 0.00
0.00 0.02 0.04 0.02 0.00 0.00 0.00 0.00 0.00 0.01 0.02 0.02 0.01 0.00 0.00 0.00 0.00 0.00 0.00 0.00 0.00 0.00 0.00 0.00 0.00 0.00 0.00 0.00 0.00 0.00 0.00 0.00 0.00 0.00 0.00 0.00 0.00 0.02 0.00 0.00 0.00 0.00 0.00 0.00
0.04 0.07 0.04 0.02 0.02 0.03 0.01 0.01 0.03 0.02 0.02 0.01 0.00 0.00 0.00 0.01 0.00 0.00 0.00 0.00 0.00 0.00 0.00 0.00 0.00 0.00 0.00 0.00 0.00 0.00 0.00 0.00 0.00 0.00 0.00 0.00 0.00 0.00 0.00 0.00 0.00 0.00 0.00 0.00
MSLP
1005.89 1005.90 1004.57 1004.47 1005.34 1005.96 1006.01 1005.75 1005.26 1004.83 1004.54 1004.40 1004.36 1004.34 1004.44 1004.31 1004.09 1003.80 1003.77 1003.92 1004.12 1004.58 1005.52 1007.01 1008.27 1009.29 1010.30 1011.29 1012.18 1012.72 1012.79 1012.75 1012.43 1012.12 1011.91 1011.60 1011.27 1010.73 1009.90 1009.20 1008.23 1007.53 1007.17 1007.16
1005.75 1004.99 1004.82 1005.38 1006.02 1006.37 1006.31 1006.11 1005.60 1004.99 1004.87 1004.86 1004.73 1004.55 1004.54 1004.06 1003.34 1002.76 1002.96 1003.55 1004.15 1004.85 1005.70 1006.93 1008.28 1009.35 1010.21 1010.96 1011.62 1012.22 1012.76 1012.87 1012.72 1012.43 1012.31 1011.80 1011.57 1010.78 1010.02 1009.10 1008.67 1007.87 1006.94 1006.71
1006.06 1005.75 1005.41 1005.77 1006.33 1006.38 1006.28 1006.06 1005.75 1005.93 1006.15 1006.00 1005.54 1004.30 1003.60 1002.82 1002.39 1002.33 1002.95 1003.83 1004.63 1005.20 1005.66 1006.50 1007.69 1008.85 1009.63 1010.25 1010.84 1011.36 1011.80 1012.39 1012.62 1012.56 1012.33 1011.96 1011.64 1010.72 1010.03 1009.56 1008.89 1008.39 1007.91 1006.94
1006.60 1005.91 1006.04 1006.52 1006.56 1006.56 1006.35 1006.52 1006.86 1006.99 1007.04 1006.35 1006.43 1004.45 1004.07 1002.81 1001.88 1001.95 1002.61 1003.34 1004.08 1004.66 1005.53 1006.50 1007.43 1008.09 1008.85 1009.49 1010.08 1010.60 1011.17 1011.51 1011.71 1012.27 1012.58 1012.44 1012.07 1011.44 1010.98 1010.32 1009.50 1008.79 1008.07 1007.90
1007.05 1006.39 1006.38 1006.82 1007.17 1007.55 1007.83 1008.01 1008.11 1008.09 1007.58 1006.95 1006.24 1005.29 1003.12 1002.29 1001.99 1002.37 1002.25 1002.84 1003.62 1004.47 1005.32 1006.07 1006.84 1007.49 1008.15 1008.89 1009.52 1009.92 1010.69 1011.24 1011.49 1011.58 1012.18 1012.40 1012.17 1011.91 1011.36 1010.84 1010.14 1009.23 1008.27 1007.62
1007.08 1006.78 1006.97 1007.25 1008.01 1008.22 1008.39 1008.61 1008.21 1007.92 1007.42 1006.39 1005.44 1004.62 1003.45 1002.65 1002.52 1002.43 1002.67 1003.12 1003.84 1004.56 1005.24 1005.77 1006.26 1007.42 1007.79 1008.32 1009.53 1009.50 1010.35 1011.19 1011.29 1011.17 1011.64 1012.07 1012.08 1011.87 1011.49 1011.01 1010.46 1009.50 1008.26 1007.40
1008.01 1006.85 1007.30 1008.25 1008.55 1008.41 1008.17 1008.84 1008.89 1008.53 1008.18 1007.26 1006.09 1005.09 1004.06 1003.61 1003.29 1003.23 1003.56 1004.24 1004.84 1005.38 1005.54 1006.42 1007.24 1007.63 1008.18 1008.91 1008.72 1009.41 1010.63 1010.42 1010.63 1010.60 1010.97 1011.56 1011.73 1011.76 1011.49 1010.90 1010.11 1009.46 1008.50 1007.59
1008.92 1008.14 1008.47 1008.92 1009.11 1009.20 1009.45 1009.77 1009.96 1009.34 1009.30 1008.29 1008.08 1006.55 1005.16 1004.65 1004.88 1005.13 1005.96 1006.59 1006.70 1007.39 1008.14 1009.12 1010.23 1010.22 1010.93 1012.55 1008.55 1009.21 1009.70 1009.68 1010.00 1010.14 1010.49 1011.00 1011.22 1011.18 1010.94 1010.56 1010.04 1009.64 1008.99 1008.27
1011.15 1010.06 1010.01 1009.99 1009.71 1010.02 1009.85 1009.95 1009.98 1010.44 1010.72 1009.96 1008.55 1006.95 1005.40 1005.22 1006.80 1007.51 1008.48 1009.20 1009.11 1009.35 1010.06 1010.45 1011.17 1011.47 1010.74 1013.28 1010.31 1009.36 1009.10 1009.21 1009.81 1010.18 1010.26 1010.39 1010.70 1010.61 1010.50 1010.30 1010.06 1009.36 1008.65 1008.06
1012.65 1012.04 1011.61 1010.41 1010.38 1010.28 1009.79 1009.79 1010.26 1011.02 1011.24 1010.27 1008.79 1007.86 1006.66 1006.31 1007.19 1008.28 1010.15 1010.16 1010.08 1010.57 1010.99 1011.04 1011.76 1011.89 1011.64 1011.77 1010.38 1009.60 1009.10 1009.30 1009.64 1009.93 1009.85 1009.84 1010.19 1010.23 1010.12 1009.95 1009.65 1009.08 1008.42 1007.91
1013.39 1013.17 1012.30 1011.65 1010.60 1009.63 1009.59 1009.55 1009.96 1010.44 1011.09 1010.99 1010.19 1008.29 1008.20 1007.58 1007.82 1008.36 1009.24 1009.97 1010.69 1011.00 1011.25 1011.15 1011.31 1011.53 1011.15 1010.67 1010.84 1009.48 1009.37 1009.30 1009.37 1009.59 1009.43 1009.48 1009.69 1009.73 1009.73 1009.67 1009.28 1008.78 1008.15 1007.45
1014.04 1013.92 1013.16 1012.44 1010.98 1010.44 1010.05 1010.04 1010.62 1011.78 1012.76 1012.23 1011.85 1009.05 1009.94 1009.12 1009.02 1009.26 1009.83 1010.40 1011.61 1012.32 1011.92 1011.36 1010.87 1010.19 1010.72 1010.38 1009.19 1008.80 1009.17 1009.28 1009.24 1009.15 1009.03 1009.22 1009.45 1009.49 1009.53 1009.42 1008.97 1008.41 1007.73 1007.10
1015.20 1015.03 1014.31 1012.93 1010.87 1010.84 1010.57 1010.75 1010.94 1011.17 1011.54 1011.47 1011.87 1010.17 1010.89 1010.25 1010.38 1010.68 1010.55 1010.94 1011.21 1011.03 1011.22 1010.59 1009.94 1009.87 1009.63 1009.23 1008.94 1008.69 1008.78 1009.16 1009.18 1009.15 1009.21 1009.26 1009.43 1009.63 1009.63 1009.39 1008.97 1008.45 1007.92 1006.97
1015.77 1015.82 1015.39 1014.34 1012.89 1012.25 1011.60 1011.23 1011.01 1011.09 1011.26 1011.93 1012.32 1012.29 1011.99 1010.46 1010.74 1010.84 1010.55 1011.37 1011.66 1011.29 1010.67 1010.22 1009.94 1009.74 1009.54 1009.38 1009.20 1009.33 1009.36 1009.38 1009.29 1009.34 1009.40 1009.42 1009.53 1009.68 1009.67 1009.34 1008.76 1008.13 1007.42 1006.59
1015.39 1015.58 1015.16 1014.34 1013.66 1012.71 1012.01 1011.33 1010.99 1011.46 1011.94 1012.19 1012.36 1012.03 1011.61 1011.53 1011.58 1011.39 1011.37 1011.54 1011.51 1011.37 1011.01 1010.51 1010.03 1009.73 1009.70 1009.55 1009.58 1009.71 1009.81 1009.76 1009.70 1009.46 1009.47 1009.53 1009.51 1009.60 1009.45 1008.90 1008.19 1007.50 1006.60 1005.89
1015.10 1015.16 1015.16 1014.58 1013.79 1012.91 1012.18 1011.91 1012.13 1012.41 1013.11 1013.12 1013.07 1012.77 1012.82 1012.80 1012.39 1012.15 1012.34 1012.28 1011.89 1011.45 1011.01 1010.58 1009.99 1009.78 1009.83 1009.84 1009.74 1009.64 1009.66 1009.67 1009.59 1009.50 1009.50 1009.38 1009.29 1009.08 1008.83 1008.44 1007.62 1006.83 1005.80 1005.12
1015.64 1015.67 1015.50 1014.63 1014.35 1013.43 1013.08 1014.00 1013.58 1013.53 1013.41 1013.84 1014.03 1013.78 1014.10 1013.91 1013.71 1013.44 1013.10 1012.86 1012.23 1011.58 1011.09 1010.76 1010.57 1010.38 1010.17 1010.06 1009.91 1009.53 1009.50 1009.42 1009.23 1009.16 1009.04 1008.94 1008.79 1008.46 1008.21 1007.70 1006.97 1006.04 1005.18 1004.52
1015.24 1015.77 1015.76 1015.06 1014.62 1014.06 1013.68 1015.34 1015.02 1015.00 1014.86 1014.81 1015.03 1015.46 1015.27 1014.48 1013.85 1013.88 1013.55 1012.85 1012.63 1012.23 1011.70 1011.24 1010.75 1010.35 1010.12 1009.99 1009.77 1009.37 1009.13 1008.88 1008.69 1008.60 1008.43 1008.32 1008.17 1008.01 1007.49 1006.93 1006.23 1005.26 1004.77 1003.82
1015.13 1015.60 1015.56 1015.76 1015.37 1014.66 1014.17 1015.96 1015.69 1015.39 1015.04 1015.50 1015.66 1015.26 1015.08 1014.64 1014.03 1013.28 1013.27 1013.37 1012.87 1012.35 1011.79 1011.31 1010.77 1010.30 1009.96 1009.63 1009.24 1008.96 1008.65 1008.42 1008.25 1008.06 1007.86 1007.68 1007.61 1007.34 1006.90 1006.39 1005.45 1004.84 1004.27 1003.63
1014.47 1015.20 1016.22 1016.42 1015.90 1015.08 1015.26 1016.15 1015.59 1015.19 1014.98 1015.66 1015.74 1015.48 1015.24 1014.72 1013.82 1012.60 1012.95 1012.89 1012.57 1012.33 1011.85 1011.17 1010.59 1009.91 1009.52 1009.12 1008.87 1008.51 1008.21 1008.06 1007.94 1007.81 1007.42 1007.21 1006.99 1006.64 1006.38 1005.81 1005.11 1004.39 1003.56 1003.61
1014.91 1015.36 1015.77 1015.73 1015.93 1015.57 1016.00 1015.87 1015.44 1015.57 1016.27 1015.99 1015.81 1015.58 1015.25 1014.99 1014.60 1013.50 1013.25 1013.01 1012.81 1012.17 1011.46 1010.69 1010.11 1009.60 1009.10 1008.76 1008.43 1008.04 1007.84 1007.60 1007.53 1007.31 1007.02 1006.65 1006.34 1006.11 1005.75 1005.24 1004.71 1004.02 1003.73 1004.20
1015.74 1016.27 1016.46 1016.55 1016.17 1015.37 1015.49 1015.66 1016.79 1016.75 1016.09 1015.79 1015.42 1015.26 1015.01 1014.60 1014.16 1013.83 1013.67 1013.16 1012.74 1011.91 1010.96 1010.35 1009.73 1009.33 1008.99 1008.60 1008.10 1007.53 1007.25 1007.14 1007.03 1006.77 1006.35 1006.06 1005.68 1005.40 1004.94 1004.50 1004.15 1004.03 1004.30 1004.65
1016.31 1016.60 1017.39 1017.38 1016.60 1016.14 1016.49 1016.30 1016.18 1016.05 1015.83 1015.45 1015.38 1015.06 1014.75 1014.64 1014.60 1014.59 1014.00 1013.36 1012.59 1011.62 1010.98 1010.33 1009.61 1008.80 1008.36 1007.90 1007.54 1006.97 1006.58 1006.59 1006.44 1006.10 1005.80 1005.40 1004.96 1004.52 1004.09 1003.98 1003.82 1004.36 1004.65 1004.91
1016.21 1016.54 1016.61 1016.95 1016.41 1016.33 1016.17 1016.02 1016.11 1015.93 1015.58 1015.17 1015.08 1014.86 1015.04 1015.15 1015.07 1014.55 1014.03 1013.16 1012.30 1011.56 1010.70 1009.94 1009.12 1008.23 1007.40 1006.95 1006.63 1006.31 1006.00 1005.92 1005.76 1005.46 1005.12 1004.59 1004.15 1003.80 1003.58 1003.64 1004.04 1004.38 1004.81 1005.03
1016.33 1017.06 1017.43 1016.82 1016.46 1016.51 1016.32 1016.18 1015.94 1015.51 1015.12 1014.97 1014.84 1015.24 1015.48 1015.46 1015.01 1014.67 1013.74 1012.90 1012.04 1011.09 1010.14 1009.37 1008.48 1007.60 1006.63 1006.03 1005.49 1005.14 1005.01 1005.10 1005.05 1004.70 1004.29 1003.94 1003.68 1003.90 1004.11 1004.64 1004.81 1004.83 1005.07 1005.16
1016.62 1017.11 1017.31 1016.93 1016.91 1016.68 1016.11 1015.66 1015.21 1014.88 1014.86 1014.81 1015.09 1015.29 1015.57 1015.74 1015.15 1014.41 1013.55 1012.71 1011.65 1010.49 1009.37 1008.46 1007.47 1006.63 1005.69 1004.99 1004.43 1004.02 1003.88 1004.15 1004.36 1004.06 1003.74 1003.54 1003.84 1004.34 1004.78 1005.21 1005.65 1005.89 1005.70 1005.67
Thickness
5769 5748 5751 5760 5757 5750 5745 5739 5737 5751 5763 5752 5745 5741 5743 5749 5747 5745 5744 5742 5740 5735 5731 5721 5711 5705 5698 5691 5685 5680 5680 5680 5682 5684 5684 5687 5689 5696 5705 5713 5723 5731 5734 5736
5755 5746 5764 5763 5754 5743 5738 5728 5730 5747 5754 5743 5735 5729 5736 5740 5742 5746 5741 5738 5731 5725 5717 5707 5701 5695 5689 5682 5679 5673 5668 5667 5667 5668 5669 5674 5675 5684 5691 5700 5704 5711 5725 5733
5737 5747 5763 5749 5738 5730 5732 5725 5725 5720 5726 5730 5718 5717 5728 5742 5748 5745 5736 5729 5721 5713 5707 5698 5688 5683 5679 5673 5669 5667 5664 5656 5653 5653 5655 5658 5659 5669 5675 5679 5686 5693 5705 5721
5738 5754 5742 5732 5725 5730 5714 5731 5718 5708 5697 5683 5706 5677 5708 5725 5733 5735 5726 5719 5711 5707 5699 5692 5679 5674 5669 5667 5663 5657 5654 5651 5645 5640 5635 5634 5637 5642 5648 5657 5666 5676 5688 5698
5724 5733 5728 5716 5716 5718 5700 5711 5700 5694 5686 5685 5689 5676 5706 5732 5718 5719 5727 5720 5711 5703 5695 5685 5677 5670 5662 5656 5648 5643 5639 5636 5632 5630 5623 5619 5619 5622 5629 5634 5643 5654 5670 5683
5729 5744 5729 5716 5713 5708 5704 5693 5695 5693 5687 5668 5693 5693 5693 5710 5714 5718 5723 5715 5704 5696 5692 5685 5680 5670 5661 5648 5635 5632 5621 5619 5618 5620 5614 5608 5606 5609 5611 5616 5623 5635 5653 5667
5713 5723 5722 5710 5692 5700 5696 5671 5643 5642 5645 5650 5692 5680 5688 5704 5715 5709 5700 5692 5689 5685 5687 5676 5665 5658 5654 5639 5625 5624 5607 5615 5613 5612 5608 5602 5599 5597 5598 5605 5615 5622 5636 5648
5682 5680 5696 5697 5682 5668 5666 5658 5634 5616 5624 5641 5664 5645 5672 5695 5689 5684 5672 5661 5661 5651 5645 5635 5624 5621 5615 5602 5614 5613 5608 5609 5604 5605 5601 5595 5592 5591 5593 5598 5605 5611 5619 5629
5655 5666 5684 5682 5683 5672 5657 5644 5663 5632 5634 5622 5644 5663 5688 5688 5652 5643 5636 5630 5626 5623 5618 5616 5608 5604 5603 5577 5591 5598 5605 5603 5595 5593 5590 5589 5584 5585 5586 5589 5593 5602 5612 5621
5656 5637 5663 5673 5672 5668 5658 5662 5629 5626 5591 5596 5629 5633 5644 5659 5639 5624 5604 5606 5610 5607 5604 5603 5593 5590 5584 5582 5587 5592 5595 5589 5583 5579 5582 5582 5577 5576 5579 5581 5585 5593 5602 5611
5650 5639 5644 5654 5652 5651 5649 5645 5646 5639 5627 5593 5590 5617 5646 5639 5635 5626 5612 5605 5598 5592 5591 5589 5584 5578 5579 5577 5569 5581 5580 5576 5573 5570 5573 5573 5570 5569 5570 5573 5578 5586 5595 5604
5643 5632 5621 5631 5654 5656 5648 5639 5632 5590 5580 5599 5583 5595 5627 5619 5615 5605 5595 5588 5574 5566 5565 5566 5568 5575 5566 5565 5572 5573 5570 5567 5564 5564 5566 5564 5560 5561 5562 5564 5571 5579 5587 5597
5627 5613 5593 5610 5645 5645 5633 5630 5629 5623 5611 5590 5569 5583 5601 5603 5582 5581 5577 5572 5566 5565 5561 5559 5563 5561 5562 5562 5560 5561 5560 5553 5554 5554 5553 5552 5549 5549 5551 5555 5561 5569 5576 5589
5620 5607 5595 5585 5601 5610 5601 5610 5616 5612 5581 5575 5567 5560 5568 5583 5572 5574 5572 5561 5555 5555 5557 5556 5553 5551 5551 5547 5543 5541 5542 5542 5544 5542 5541 5540 5538 5538 5541 5547 5553 5562 5572 5583
5614 5594 5600 5603 5603 5604 5600 5602 5606 5588 5586 5566 5565 5564 5570 5564 5560 5561 5559 5552 5547 5544 5542 5542 5540 5539 5537 5533 5528 5528 5527 5527 5529 5530 5530 5528 5528 5530 5534 5542 5550 5559 5570 5581
5614 5593 5592 5585 5595 5595 5590 5595 5582 5578 5565 5561 5559 5555 5555 5552 5551 5547 5539 5534 5533 5533 5532 5531 5530 5526 5521 5518 5516 5516 5516 5516 5517 5518 5518 5519 5521 5526 5531 5538 5547 5557 5570 5580
5595 5588 5579 5571 5582 5582 5570 5557 5564 5562 5564 5549 5534 5542 5535 5530 5529 5527 5522 5520 5520 5520 5519 5515 5510 5507 5504 5502 5501 5504 5504 5505 5508 5510 5511 5512 5516 5524 5528 5535 5546 5558 5570 5579
5586 5575 5571 5563 5567 5548 5573 5547 5546 5542 5544 5542 5532 5519 5518 5523 5528 5518 5511 5507 5501 5498 5498 5497 5496 5494 5493 5491 5490 5493 5496 5499 5502 5503 5507 5510 5515 5520 5527 5536 5546 5558 5565 5580
5588 5573 5561 5548 5547 5559 5567 5533 5529 5526 5530 5529 5520 5522 5519 5518 5517 5521 5508 5495 5489 5485 5484 5482 5484 5483 5482 5482 5484 5486 5489 5492 5495 5499 5503 5508 5513 5519 5526 5534 5547 5554 5563 5574
5590 5578 5552 5541 5534 5533 5543 5533 5542 5539 5524 5524 5518 5513 5508 5506 5496 5514 5503 5492 5482 5475 5473 5472 5474 5476 5476 5477 5478 5481 5484 5487 5489 5494 5501 5507 5512 5519 5524 5533 5543 5551 5562 5568
5570 5564 5551 5547 5534 5545 5532 5534 5538 5516 5512 5515 5512 5506 5502 5493 5491 5491 5485 5476 5468 5466 5467 5470 5470 5471 5472 5474 5475 5476 5478 5480 5484 5489 5496 5503 5509 5514 5522 5531 5540 5549 5555 5556
5553 5538 5534 5531 5527 5530 5541 5533 5501 5509 5515 5512 5510 5505 5496 5495 5488 5481 5469 5463 5456 5457 5463 5466 5466 5464 5466 5468 5471 5475 5476 5477 5477 5482 5491 5498 5506 5514 5525 5533 5540 5545 5546 5548
5541 5543 5522 5521 5522 5534 5527 5518 5519 5516 5511 5509 5501 5498 5492 5483 5472 5457 5451 5448 5449 5455 5456 5458 5460 5463 5466 5469 5472 5476 5479 5477 5477 5481 5486 5495 5506 5518 5527 5531 5539 5537 5540 5544
5552 5546 5534 5524 5531 5525 5522 5521 5515 5510 5507 5506 5499 5492 5482 5466 5454 5448 5442 5446 5448 5450 5454 5457 5461 5465 5470 5474 5476 5478 5480 5481 5482 5484 5490 5500 5510 5518 5528 5533 5536 5536 5537 5540
5544 5531 5515 5522 5524 5518 5516 5512 5509 5509 5508 5500 5495 5482 5468 5455 5449 5443 5446 5449 5451 5453 5455 5456 5459 5463 5469 5474 5479 5483 5486 5486 5487 5492 5500 5508 5516 5517 5519 5520 5526 5532 5532 5537
5537 5522 5511 5509 5512 5508 5509 5511 5511 5508 5503 5496 5483 5473 5462 5448 5446 5447 5449 5449 5451 5454 5457 5458 5461 5464 5470 5475 5479 5483 5488 5490 5491 5499 5507 5514 5515 5514 5515 5517 5517 5516 5523 5529